Terug naar catalogus

STARLINK-3735

ActiefCommunicatieVLEO
NORAD 52116·PAYLOAD·🇺🇸 United States

Gelanceerd Mar 19, 2022 vanaf Cape Canaveral Space Force Station

Loading…

Volgende Passages (komende 24 uur)

TLE

VersSource: CelesTrak SupGP

Epoch: Sep 15, 2026, 01:29 UTC

1 52116C 22029AE  26258.06229167  .00028214  00000+0  83352-3 0  2584
2 52116  53.1585 294.7936 0001250  95.2138  55.2787 15.34378757    15

Volg STARLINK-3735 in realtime met AllMySat

Download on the App Store